SL-14 DEB, 46465

Orbit data source: Space-Track

SL-14 DEB, 46465 is space debris in LEO originally from a launch on Thu, 15 Aug 1991 UTC launched from the Plesetsk Missile And Space Complex (PKMTR). Debris objects in space refer to the collection of defunct objects orbiting the Earth. Examples of debris include non-operational satellites, rocket bodies, and fragments generated from explosions, collisions, or faulty payload assembly.

Loading next visibility...
Identifier
46465, 1991-056DA
Orbit
LEO
Country
Flag of CISCIS
Related business
Manufacturer
Unknown
Mission
Spacecraft
Bus & Motor
Unknown
Mass
Unknown
Launch date (UTC)
1991-08-15 (34 years ago)
Launch vehicle
Unknown
Launch site
Plesetsk Missile And Space Complex (PKMTR)
Object type
Payload
Rocket body
Debris
Shape & HBR
Unknown shape, 0.1 m
Radar Cross Section
Small (<0.1 m²)

Expand to show TLE details & history
Last TLE update: 4 days ago

TLE from 4 days ago
0 SL-14 DEB
1 46465U 91056DA  25283.52648441  .00000206  00000-0  54061-3 0  9997
2 46465  82.5624 330.5027 0028906 194.3213 165.7090 13.11965883248245
Epoch: 2025-10-10T12:38Z
TLE epoch observation values (Epoch: 2025-10-10T12:38:08.253Z)
Latitude
-0.00003°
Longitude
121.59725°
Altitude
1,239.643 km
Speed
7.225 km/s
True Right ascension
22h 02m 00s
True Declination
0° 00' 00"
Sunlit
Object was in full shadow at epoch
Visualization orbit readout
Latitude
Unknown
Longitude
Unknown
Altitude
Unknown
Speed
Unknown
Apparent Right ascension
Unknown
Apparent Declination
Unknown
Sunlit
N/A
Visualization observer readout
Local Sidereal Time
02:52:12
Azimuth
Unknown
Elevation
Unknown
Doppler factor
Unknown
Orbital elements
Apogee altitude
1,234.757 km
Perigee altitude
1,190.873 km
Semi-major axis
7,590.952 km
Eccentricity
0.00289
Inclination
82.5624°
RAAN
330.5027°
Arg. of periapsis
194.3213°
True anomaly
165.79048°
Mean anomaly
165.709°
Eccentric anomaly
165.74977°
Mean motion
3.2817 °/min
Orbital period
109.7 mins
BSTAR
0.00054061
Loading maneuver chart data...
Computing Atmospheric mass density...
Loading historical data...
Loading historical data...
Loading historical data...
Loading historical data...
Loading historical data...
Loading historical data...
Loading historical data...

Documentation

Showing up to 5 results
|